Погода в Волгореченске

Россия / Костромская область     57°26′22″N   41°09′26″E
темп.,
°C
ветер,
м/с
пор.,
м/с
влажн.,
%
обл.,
%
осадки,
мм/ч
давл.,
гПа
погр.,
м
18 августа, чт
чт1800:00+18вюв37732 0.0 1021114
03:00+16в34804 0.0 102269
06:00+17в37804 0.0 1023158
09:00+24вюв46530 0.0 1023606
12:00+27вюв56410 0.0 10231811
15:00+28в56370 0.0 10221960
18:00+26вюв57400 0.0 10231231
21:00+19в49620 0.0 1024123
19 августа, пт
пт1900:00+17в411742 0.0 1025201
03:00+16в410857 0.0 1026206
06:00+15в511796 0.0 1028287
09:00+21вюв693975 0.0 1029714
12:00+24вюв792961 0.0 10291333
15:00+25вюв792484 0.0 10291555
18:00+23вюв68325 0.0 10291238
21:00+16вюв410550 0.0 1029167
20 августа, сб
сб2000:00+13вюв411630 0.0 1030180
03:00+12в410690 0.0 1031159
06:00+12вюв410660 0.0 1031201
09:00+21юв693643 0.0 1031551
12:00+25юв6727100 0.0 10301274
15:00+26юв672398 0.0 10291603
18:00+23вюв573196 0.0 1029573
21:00+16вюв495341 0.0 1029133
21 августа, вс
вс2100:00+14вюв475911 0.0 102994
03:00+12юв476647 0.0 1029108
06:00+12вюв48667 0.0 1029146
09:00+21юв573775 0.0 1029505
12:00+26юв552520 0.0 10281535
15:00+27юв5621100 0.0 10261909
18:00+25юв4729100 0.0 1026309
21:00+18вюв495791 0.0 1027131
22 августа, пн
пн2200:00+17вюв496577 0.0 1026137
03:00+17вюв3869100 0.0 1027172
06:00+17вюв387378 0.0 1027183
09:00+24юв584698 0.0 1027561
12:00+28ююв6734100 0.0 10271855
15:00+30ююв6631100 0.0 10262674
18:00+28вюв4736100 0.0 1026543
21:00+21юв41258100 0.0 1026260